map of FIH home
Great Circle Mapper logo
FIH - Airport
Location
City:  Kinshasa, Democratic Republic of Congo (Zaire)
Name:N'Djili International Airport
ICAO / IATA:FZAA / FIH

Details
Type:Airport (Aerodrome, Airfield)
Use:Public/Civil, International (customs port of entry)
Latitude:423'09"S (-4.385749)
Longitude:1526'40"E (15.444569)
Datum:WGS 1984
Elevation:1027 ft (313 m)
Runways:1
Longest:15420 × 197 ft (4700 × 60 m), paved

Time
Time Zone:UTC+1
Local Time:

Weather
TAF:FZAA 301700Z 3018/3124 24006KT 6000 SCT020
TEMPO 3105/3110 4000 BR BKN016
BECMG 3111/3113 6000 SCT020

Related Locations
Nearby:
Farthest:PLPA: 12244 mi / 19705 km
Palmyra Island Atoll [Palmyra Airport (Cooper)], UM

Find:

   beyond  
but within

Other Information
Maps:
NOTAMs:
Links:
Sources:

  
flag of Democratic Republic of Congo (Zaire)   

Sectional Chart

Flight Planning
at skyvector.com

Satellite Image

Google Maps Satellite View

 

Copyright © 2004-2014 Karl L. Swartz. All rights reserved.
The Great Circle Mapper name and logo are trademarks of the Great Circle Mapper.
All other trademarks mentioned herein belong to their respective owners.
Please see credits for attibutions and further copyright information.

  Follow gcmap on Facebook Follow gcmap on Twitter

hCard Microformat

Geo Microformat